Qianfan Jigui 03-01

operational
NORAD ID: 62238 Int'l Des: 2024-232 Owner: YUANX Country: CN Constellation: qianfan
LEOCIRCULARPOLAR

Über Qianfan Jigui 03-01

Beschreibung wird geladen...

Live-Position

3D-Globus wird geladen...

Nächste Überflüge

Höhenverlauf

Altitude vs Time

uPlot chart will show altitude changes over time

Zweizeiliger Elementsatz

1 62238U 24232B 26061.16686978 .00000073 00000-0 93773-4 0 9993
2 62238 89.0044 33.3049 0001614 96.1400 263.9935 13.51004759109891
Epoch: 2. März 2026 • Age: 27 hours

Aktueller Status

Höhe 1083.9 km
Geschwindigkeit 7.31 km/s
Subsatellitenpunkt -38.20°S, 172.34°W
Startdatum 5. Dez. 2024
Alter 1.2 years
Typ internet

Technische Details

Klassifizierung Payload
Masse 267.00 kg
Trockenmasse 267.00 kg
Gesamtmasse 267.00 kg
Länge 0.30 m
Durchmesser 3.00 m
Spannweite 10.00 m
Form Box+pan
Hersteller SECM
Bus-Typ Qianfan
Phasenstatus In Orbit
Besitzer/Staat YUANX/CN

Große Konstellationen

Loading constellations...